sat.trackr.live / text

‹ back to catalog

STARLINK-36605

NORAD 67604 · 2026-018R

PAYLOAD ACTIVE UNKNOWN

§ Identity

Operator
Country
US
Launch date
2026-01-29
Launch site
AFWTR
Launch vehicle
Mass (kg)
RCS (m²)

Purposes: comms

External: N2YO · Heavens-Above · Gunter

§ Orbital elements

Epoch: 2026-09-19T11:40:00.594336Z

Period
93.91 min
Inclination
97.2871°
Eccentricity
0.0001217
Mean motion
15.33448330 rev/d
Perigee alt
464.7 km
Apogee alt
466.4 km
Semi-major
6,843.7 km
B*
4.3959e-4
RAAN
325.9372°
Arg perigee
104.0838°
Mean anomaly
256.0540°
Rev number
3,703

§ Raw data

STARLINK-366051 67604U 26018R   26262.48611799  .00014145  00000+0  43959-3 0  99902 67604  97.2871 325.9372 0001217 104.0838 256.0540 15.33448330 37034

JSON: /api/v1/satellites/67604 · /tle

For live sub-satellite position, see the globe view (requires WebGL).

§ Visibility from observer

Set your observer location to see the next 7 days of passes ≥ 10°. The values pass through the URL so the page stays shareable.

No JS? Fill the form by hand. The geolocation button needs JavaScript.